START_TIME,STEP,MOV.,P11,t_acc.,P23,t_acc.,P27,t_acc.,A4,t_acc.
1979-07-20 00:00:22.910 ,0,0,0.,4.8,0.,4.8,0.,4.8,0.,4.8
1979-07-20 00:00:27.710 ,0,0,0.,4.8,0.,4.8,0.,4.8,0.,4.8
1979-07-20 00:00:32.510 ,0,0,0.,4.8,0.,4.8,0.,4.8,0.,4.8
1979-07-20 00:00:37.310 ,0,0,0.,4.8,0.,4.8,0.,4.8,0.,4.8
1979-07-20 00:00:42.110 ,0,0,0.,4.8,0.,4.8,0.,4.8,0.,4.8
1979-07-20 00:00:46.910 ,1,0,0.,4.8,0.,4.8,0.,4.8,0.,4.8
1979-07-20 00:00:51.710 ,1,0,1.,4.8,0.,4.8,0.,4.8,0.,4.8
1979-07-20 00:00:56.510 ,1,0,1.,4.8,0.,4.8,0.,4.8,1.,4.8
1979-07-20 00:01:01.310 ,1,0,0.,4.8,0.,4.8,0.,4.8,0.,4.8
1979-07-20 00:01:06.110 ,1,0,0.,4.8,0.,4.8,0.,4.8,0.,4.8
1979-07-20 00:01:10.910 ,1,0,0.,4.8,0.,4.8,0.,4.8,0.,4.8
1979-07-20 00:01:15.710 ,1,0,0.,4.8,0.,4.8,0.,4.8,0.,4.8
1979-07-20 00:01:20.510 ,1,0,0.,4.8,0.,4.8,0.,4.8,0.,4.8
1979-07-20 00:01:25.310 ,1,0,1.,4.8,0.,4.8,0.,4.8,0.,4.8
1979-07-20 00:01:30.110 ,1,0,0.,4.8,0.,4.8,0.,4.8,0.,4.8
1979-07-20 00:01:34.910 ,2,0,0.,4.8,0.,4.8,0.,4.8,0.,4.8
1979-07-20 00:01:39.710 ,2,0,0.,4.8,0.,4.8,0.,4.8,0.,4.8
1979-07-20 00:01:44.510 ,2,0,0.,4.8,0.,4.8,0.,4.8,0.,4.8
1979-07-20 00:01:49.310 ,2,0,0.,4.8,0.,4.8,0.,4.8,0.,4.8
1979-07-20 00:01:54.110 ,2,0,0.,4.8,0.,4.8,0.,4.8,0.,4.8
1979-07-20 00:01:58.910 ,2,0,2.,4.8,0.,4.8,0.,4.8,0.,4.8
1979-07-20 00:02:03.710 ,2,0,0.,4.8,0.,4.8,0.,4.8,0.,4.8
1979-07-20 00:02:08.510 ,2,0,0.,4.8,0.,4.8,0.,4.8,0.,4.8
1979-07-20 00:02:13.310 ,2,0,0.,4.8,0.,4.8,0.,4.8,0.,4.8
1979-07-20 00:02:18.110 ,2,0,0.,4.8,0.,4.8,0.,4.8,0.,4.8
1979-07-20 00:02:22.910 ,3,0,0.,4.8,0.,4.8,2.,4.8,0.,4.8
1979-07-20 00:02:27.710 ,3,0,0.,4.8,0.,4.8,0.,4.8,0.,4.8
1979-07-20 00:02:32.510 ,3,0,1.,4.8,0.,4.8,0.,4.8,0.,4.8
1979-07-20 00:02:37.310 ,3,0,0.,4.8,0.,4.8,0.,4.8,0.,4.8
1979-07-20 00:02:42.110 ,3,0,0.,4.8,0.,4.8,0.,4.8,0.,4.8
1979-07-20 00:02:46.910 ,3,0,0.,4.8,0.,4.8,0.,4.8,0.,4.8
1979-07-20 00:02:51.710 ,3,0,1.,4.8,0.,4.8,0.,4.8,1.,4.8
1979-07-20 00:02:56.510 ,3,0,0.,4.8,0.,4.8,0.,4.8,0.,4.8
1979-07-20 00:03:01.310 ,3,0,0.,4.8,0.,4.8,0.,4.8,0.,4.8
1979-07-20 00:03:06.110 ,3,0,0.,4.8,0.,4.8,0.,4.8,0.,4.8
1979-07-20 00:03:10.910 ,4,0,0.,4.8,0.,4.8,0.,4.8,0.,4.8
1979-07-20 00:03:15.710 ,4,0,0.,4.8,0.,4.8,0.,4.8,1.,4.8
1979-07-20 00:03:20.510 ,4,0,0.,4.8,0.,4.8,0.,4.8,0.,4.8
1979-07-20 00:03:25.310 ,4,0,0.,4.8,0.,4.8,0.,4.8,0.,4.8
1979-07-20 00:03:30.110 ,4,0,0.,4.8,0.,4.8,0.,4.8,0.,4.8
1979-07-20 00:03:34.910 ,4,0,1.,4.8,0.,4.8,0.,4.8,0.,4.8
1979-07-20 00:03:39.710 ,4,0,0.,4.8,0.,4.8,0.,4.8,0.,4.8
1979-07-20 00:03:44.510 ,4,0,0.,4.8,0.,4.8,0.,4.8,0.,4.8
1979-07-20 00:03:49.310 ,4,0,0.,4.8,0.,4.8,0.,4.8,0.,4.8
1979-07-20 00:03:54.110 ,4,0,1.,4.8,0.,4.8,0.,4.8,0.,4.8
1979-07-20 00:03:58.910 ,5,0,0.,4.8,0.,4.8,0.,4.8,0.,4.8
1979-07-20 00:04:03.710 ,5,0,0.,4.8,0.,4.8,0.,4.8,0.,4.8
1979-07-20 00:04:08.510 ,5,0,1.,4.8,0.,4.8,1.,4.8,0.,4.8
1979-07-20 00:04:13.310 ,5,0,1.,4.8,0.,4.8,0.,4.8,0.,4.8
1979-07-20 00:04:18.110 ,5,0,0.,4.8,0.,4.8,0.,4.8,0.,4.8
1979-07-20 00:04:22.910 ,5,0,1.,4.8,0.,4.8,0.,4.8,0.,4.8
1979-07-20 00:04:27.710 ,5,0,0.,4.8,0.,4.8,1.,4.8,0.,4.8
1979-07-20 00:04:32.510 ,5,0,1.,4.8,0.,4.8,0.,4.8,0.,4.8
1979-07-20 00:04:37.310 ,5,0,0.,4.8,0.,4.8,1.,4.8,0.,4.8
1979-07-20 00:04:42.110 ,5,0,0.,4.8,0.,4.8,0.,4.8,0.,4.8
1979-07-20 00:04:46.910 ,6,0,0.,4.8,0.,4.8,1.,4.8,0.,4.8
1979-07-20 00:04:51.710 ,6,0,0.,4.8,0.,4.8,0.,4.8,0.,4.8
1979-07-20 00:04:56.510 ,6,0,0.,4.8,0.,4.8,0.,4.8,0.,4.8
1979-07-20 00:05:01.310 ,6,0,0.,4.8,0.,4.8,0.,4.8,0.,4.8
1979-07-20 00:05:06.110 ,6,0,1.,4.8,0.,4.8,0.,4.8,0.,4.8
1979-07-20 00:05:10.910 ,6,0,0.,4.8,0.,4.8,0.,4.8,0.,4.8
1979-07-20 00:05:15.710 ,6,0,1.,4.8,0.,4.8,0.,4.8,0.,4.8
1979-07-20 00:05:20.510 ,6,0,0.,4.8,0.,4.8,1.,4.8,0.,4.8
1979-07-20 00:05:25.310 ,6,0,0.,4.8,0.,4.8,0.,4.8,0.,4.8
1979-07-20 00:05:30.110 ,6,0,0.,4.8,0.,4.8,0.,4.8,0.,4.8
1979-07-20 00:05:34.910 ,7,0,0.,4.8,0.,4.8,1.,4.8,0.,4.8
1979-07-20 00:05:39.710 ,7,0,0.,4.8,0.,4.8,0.,4.8,0.,4.8
1979-07-20 00:05:44.510 ,7,0,0.,4.8,0.,4.8,0.,4.8,0.,4.8
1979-07-20 00:05:49.310 ,7,0,0.,4.8,0.,4.8,0.,4.8,0.,4.8
1979-07-20 00:05:54.110 ,7,0,0.,4.8,0.,4.8,0.,4.8,0.,4.8
1979-07-20 00:05:58.910 ,7,0,0.,4.8,0.,4.8,0.,4.8,0.,4.8
1979-07-20 00:06:03.710 ,7,0,0.,4.8,0.,4.8,1.,4.8,0.,4.8
1979-07-20 00:06:08.510 ,7,0,0.,4.8,0.,4.8,1.,4.8,0.,4.8
1979-07-20 00:06:13.310 ,7,0,2.,4.8,0.,4.8,0.,4.8,0.,4.8
1979-07-20 00:06:18.110 ,7,0,0.,4.8,0.,4.8,0.,4.8,0.,4.8
1979-07-20 00:06:22.910 ,7,0,0.,4.8,0.,4.8,0.,4.8,0.,4.8
1979-07-20 00:06:27.710 ,7,0,0.,4.8,0.,4.8,0.,4.8,0.,4.8
1979-07-20 00:06:32.510 ,7,0,1.,4.8,0.,4.8,0.,4.8,0.,4.8
1979-07-20 00:06:37.310 ,7,0,0.,4.8,0.,4.8,1.,4.8,0.,4.8
1979-07-20 00:06:42.110 ,7,0,0.,4.8,0.,4.8,0.,4.8,0.,4.8
1979-07-20 00:06:46.910 ,7,0,0.,4.8,0.,4.8,0.,4.8,0.,4.8
1979-07-20 00:06:51.710 ,7,0,0.,4.8,0.,4.8,0.,4.8,0.,4.8
1979-07-20 00:06:56.510 ,7,0,0.,4.8,0.,4.8,0.,4.8,0.,4.8
1979-07-20 00:07:01.310 ,7,0,0.,4.8,0.,4.8,0.,4.8,0.,4.8
1979-07-20 00:07:06.110 ,7,0,0.,4.8,0.,4.8,0.,4.8,0.,4.8
1979-07-20 00:07:10.910 ,6,0,0.,4.8,0.,4.8,0.,4.8,0.,4.8
1979-07-20 00:07:15.710 ,6,0,0.,4.8,0.,4.8,1.,4.8,0.,4.8
1979-07-20 00:07:20.510 ,6,0,0.,4.8,0.,4.8,0.,4.8,0.,4.8
1979-07-20 00:07:25.310 ,6,0,1.,4.8,0.,4.8,0.,4.8,0.,4.8
1979-07-20 00:07:30.110 ,6,0,1.,4.8,0.,4.8,0.,4.8,0.,4.8
1979-07-20 00:07:34.910 ,6,0,0.,4.8,0.,4.8,0.,4.8,0.,4.8
1979-07-20 00:07:39.710 ,6,0,1.,4.8,0.,4.8,1.,4.8,0.,4.8
1979-07-20 00:07:44.510 ,6,0,0.,4.8,0.,4.8,0.,4.8,0.,4.8
1979-07-20 00:07:49.310 ,6,0,1.,4.8,0.,4.8,0.,4.8,0.,4.8
1979-07-20 00:07:54.110 ,6,0,0.,4.8,0.,4.8,0.,4.8,0.,4.8
1979-07-20 00:07:58.910 ,5,0,0.,4.8,0.,4.8,0.,4.8,0.,4.8
1979-07-20 00:08:03.710 ,5,0,1.,4.8,0.,4.8,0.,4.8,0.,4.8
1979-07-20 00:08:08.510 ,5,0,0.,4.8,0.,4.8,0.,4.8,0.,4.8
1979-07-20 00:08:13.310 ,5,0,0.,4.8,0.,4.8,0.,4.8,0.,4.8
1979-07-20 00:08:18.110 ,5,0,0.,4.8,0.,4.8,0.,4.8,0.,4.8
1979-07-20 00:08:22.910 ,5,0,2.,4.8,0.,4.8,0.,4.8,0.,4.8
1979-07-20 00:08:27.710 ,5,0,0.,4.8,0.,4.8,0.,4.8,0.,4.8
1979-07-20 00:08:32.510 ,5,0,0.,4.8,0.,4.8,0.,4.8,0.,4.8
1979-07-20 00:08:37.310 ,5,0,0.,4.8,0.,4.8,0.,4.8,0.,4.8
1979-07-20 00:08:42.110 ,5,0,1.,4.8,0.,4.8,0.,4.8,0.,4.8
1979-07-20 00:08:46.910 ,4,0,0.,4.8,0.,4.8,0.,4.8,0.,4.8
1979-07-20 00:08:51.710 ,4,0,0.,4.8,0.,4.8,0.,4.8,0.,4.8
1979-07-20 00:08:56.510 ,4,0,1.,4.8,0.,4.8,0.,4.8,0.,4.8
1979-07-20 00:09:01.310 ,4,0,0.,4.8,0.,4.8,0.,4.8,0.,4.8
1979-07-20 00:09:06.110 ,4,0,0.,4.8,0.,4.8,0.,4.8,0.,4.8
1979-07-20 00:09:10.910 ,4,0,0.,4.8,0.,4.8,0.,4.8,1.,4.8
1979-07-20 00:09:15.710 ,4,0,2.,4.8,0.,4.8,0.,4.8,1.,4.8
1979-07-20 00:09:20.510 ,4,0,0.,4.8,0.,4.8,0.,4.8,0.,4.8
1979-07-20 00:09:25.310 ,4,0,1.,4.8,0.,4.8,0.,4.8,0.,4.8
1979-07-20 00:09:30.110 ,4,0,0.,4.8,0.,4.8,0.,4.8,0.,4.8
1979-07-20 00:09:34.910 ,3,0,0.,4.8,0.,4.8,0.,4.8,0.,4.8
1979-07-20 00:09:39.710 ,3,0,0.,4.8,0.,4.8,0.,4.8,0.,4.8
1979-07-20 00:09:44.510 ,3,0,0.,4.8,0.,4.8,0.,4.8,0.,4.8
1979-07-20 00:09:49.310 ,3,0,0.,4.8,1.,4.8,0.,4.8,0.,4.8
1979-07-20 00:09:54.110 ,3,0,1.,4.8,0.,4.8,0.,4.8,0.,4.8
1979-07-20 00:09:58.910 ,3,0,1.,4.8,0.,4.8,0.,4.8,0.,4.8
1979-07-20 00:10:03.710 ,3,0,0.,4.8,0.,4.8,0.,4.8,0.,4.8
1979-07-20 00:10:08.510 ,3,0,1.,4.8,0.,4.8,0.,4.8,0.,4.8
1979-07-20 00:10:13.310 ,3,0,0.,4.8,0.,4.8,1.,4.8,0.,4.8
1979-07-20 00:10:18.110 ,3,0,0.,4.8,0.,4.8,0.,4.8,0.,4.8
1979-07-20 00:10:22.910 ,2,0,0.,4.8,0.,4.8,0.,4.8,0.,4.8
1979-07-20 00:10:27.710 ,2,0,1.,4.8,0.,4.8,0.,4.8,0.,4.8
1979-07-20 00:10:32.510 ,2,0,2.,4.8,0.,4.8,0.,4.8,0.,4.8
1979-07-20 00:10:37.310 ,2,0,0.,4.8,0.,4.8,0.,4.8,0.,4.8
1979-07-20 00:10:42.110 ,2,0,1.,4.8,0.,4.8,0.,4.8,0.,4.8
1979-07-20 00:10:46.910 ,2,0,0.,4.8,0.,4.8,0.,4.8,0.,4.8
1979-07-20 00:10:51.710 ,2,0,0.,4.8,0.,4.8,0.,4.8,0.,4.8
1979-07-20 00:10:56.510 ,2,0,0.,4.8,0.,4.8,0.,4.8,0.,4.8
1979-07-20 00:11:01.310 ,2,0,0.,4.8,0.,4.8,0.,4.8,0.,4.8
1979-07-20 00:11:06.110 ,2,0,0.,4.8,0.,4.8,0.,4.8,0.,4.8
1979-07-20 00:11:10.910 ,1,0,1.,4.8,0.,4.8,0.,4.8,0.,4.8
1979-07-20 00:11:15.710 ,1,0,0.,4.8,0.,4.8,0.,4.8,0.,4.8
1979-07-20 00:11:20.510 ,1,0,1.,4.8,0.,4.8,0.,4.8,0.,4.8
1979-07-20 00:11:25.310 ,1,0,0.,4.8,0.,4.8,0.,4.8,0.,4.8
1979-07-20 00:11:30.110 ,1,0,0.,4.8,0.,4.8,0.,4.8,0.,4.8
1979-07-20 00:11:34.910 ,1,0,0.,4.8,0.,4.8,0.,4.8,0.,4.8
1979-07-20 00:11:39.710 ,1,0,0.,4.8,0.,4.8,0.,4.8,0.,4.8
1979-07-20 00:11:44.510 ,1,0,1.,4.8,0.,4.8,0.,4.8,0.,4.8
1979-07-20 00:11:49.310 ,1,0,1.,4.8,0.,4.8,0.,4.8,0.,4.8
1979-07-20 00:11:54.110 ,1,0,1.,4.8,0.,4.8,1.,4.8,0.,4.8
1979-07-20 00:11:58.910 ,0,0,0.,4.8,0.,4.8,0.,4.8,0.,4.8
1979-07-20 00:12:03.710 ,0,0,0.,4.8,0.,4.8,0.,4.8,0.,4.8
1979-07-20 00:12:08.510 ,0,0,0.,4.8,0.,4.8,0.,4.8,0.,4.8
1979-07-20 00:12:13.310 ,0,0,0.,4.8,0.,4.8,0.,4.8,0.,4.8
1979-07-20 00:12:18.110 ,0,0,3.,4.8,0.,4.8,0.,4.8,0.,4.8
1979-07-20 00:12:22.910 ,0,0,0.,4.8,0.,4.8,0.,4.8,0.,4.8
1979-07-20 00:12:27.710 ,0,0,0.,4.8,0.,4.8,0.,4.8,0.,4.8
1979-07-20 00:12:32.510 ,0,0,0.,4.8,0.,4.8,0.,4.8,0.,4.8
1979-07-20 00:12:37.310 ,0,0,0.,4.8,0.,4.8,0.,4.8,0.,4.8
1979-07-20 00:12:42.110 ,0,0,0.,4.8,0.,4.8,0.,4.8,0.,4.8
1979-07-20 00:12:46.910 ,0,0,0.,4.8,0.,4.8,0.,4.8,0.,4.8
1979-07-20 00:12:51.710 ,0,0,1.,4.8,0.,4.8,0.,4.8,0.,4.8
1979-07-20 00:12:56.510 ,0,0,0.,4.8,0.,4.8,1.,4.8,0.,4.8
1979-07-20 00:13:01.310 ,0,0,1.,4.8,0.,4.8,0.,4.8,0.,4.8
1979-07-20 00:13:06.110 ,0,0,0.,4.8,0.,4.8,0.,4.8,0.,4.8
1979-07-20 00:13:10.910 ,0,0,0.,4.8,0.,4.8,0.,4.8,0.,4.8
1979-07-20 00:13:15.710 ,0,0,0.,4.8,0.,4.8,0.,4.8,0.,4.8
1979-07-20 00:13:20.510 ,0,0,1.,4.8,0.,4.8,0.,4.8,0.,4.8
1979-07-20 00:13:25.310 ,0,0,0.,4.8,0.,4.8,0.,4.8,0.,4.8
1979-07-20 00:13:30.110 ,0,0,0.,4.8,0.,4.8,0.,4.8,0.,4.8
1979-07-20 00:13:34.910 ,1,0,1.,4.8,0.,4.8,0.,4.8,0.,4.8
1979-07-20 00:13:39.710 ,1,0,0.,4.8,0.,4.8,0.,4.8,0.,4.8
1979-07-20 00:13:44.510 ,1,0,0.,4.8,0.,4.8,0.,4.8,1.,4.8
1979-07-20 00:13:49.310 ,1,0,0.,4.8,0.,4.8,0.,4.8,0.,4.8
1979-07-20 00:13:54.110 ,1,0,0.,4.8,1.,4.8,1.,4.8,0.,4.8
1979-07-20 00:13:58.910 ,1,0,1.,4.8,0.,4.8,0.,4.8,0.,4.8
1979-07-20 00:14:03.710 ,1,0,1.,4.8,0.,4.8,1.,4.8,0.,4.8
1979-07-20 00:14:08.510 ,1,0,0.,4.8,0.,4.8,0.,4.8,0.,4.8
1979-07-20 00:14:13.310 ,1,0,0.,4.8,0.,4.8,0.,4.8,0.,4.8
1979-07-20 00:14:18.110 ,1,0,0.,4.8,0.,4.8,0.,4.8,0.,4.8
1979-07-20 00:14:22.910 ,2,0,0.,4.8,0.,4.8,0.,4.8,0.,4.8
1979-07-20 00:14:27.710 ,2,0,0.,4.8,1.,4.8,0.,4.8,0.,4.8
1979-07-20 00:14:32.510 ,2,0,0.,4.8,0.,4.8,0.,4.8,0.,4.8
1979-07-20 00:14:37.310 ,2,0,1.,4.8,0.,4.8,2.,4.8,0.,4.8
1979-07-20 00:14:42.110 ,2,0,1.,4.8,0.,4.8,0.,4.8,0.,4.8
1979-07-20 00:14:46.910 ,2,0,0.,4.8,0.,4.8,0.,4.8,0.,4.8
1979-07-20 00:14:51.710 ,2,0,0.,4.8,0.,4.8,0.,4.8,0.,4.8
1979-07-20 00:14:56.510 ,2,0,1.,4.8,0.,4.8,0.,4.8,0.,4.8
1979-07-20 00:15:01.310 ,2,0,0.,4.8,0.,4.8,0.,4.8,0.,4.8
1979-07-20 00:15:06.110 ,2,0,0.,4.8,0.,4.8,0.,4.8,0.,4.8
1979-07-20 00:15:10.910 ,3,0,0.,4.8,0.,4.8,0.,4.8,0.,4.8
1979-07-20 00:15:15.710 ,3,0,1.,4.8,0.,4.8,0.,4.8,0.,4.8
1979-07-20 00:15:20.510 ,3,0,0.,4.8,0.,4.8,0.,4.8,0.,4.8
1979-07-20 00:15:25.310 ,3,0,1.,4.8,0.,4.8,0.,4.8,0.,4.8
1979-07-20 00:15:30.110 ,3,0,0.,4.8,0.,4.8,0.,4.8,0.,4.8
1979-07-20 00:15:34.910 ,3,0,0.,4.8,0.,4.8,0.,4.8,0.,4.8
1979-07-20 00:15:39.710 ,3,0,1.,4.8,0.,4.8,0.,4.8,0.,4.8
1979-07-20 00:15:44.510 ,3,0,1.,4.8,0.,4.8,0.,4.8,0.,4.8
1979-07-20 00:15:49.310 ,3,0,0.,4.8,0.,4.8,0.,4.8,0.,4.8
1979-07-20 00:15:54.110 ,3,0,2.,4.8,0.,4.8,0.,4.8,0.,4.8
1979-07-20 00:15:58.910 ,4,0,2.,4.8,0.,4.8,0.,4.8,0.,4.8
1979-07-20 00:16:03.710 ,4,0,0.,4.8,0.,4.8,0.,4.8,0.,4.8
1979-07-20 00:16:08.510 ,4,0,1.,4.8,0.,4.8,0.,4.8,0.,4.8
1979-07-20 00:16:13.310 ,4,0,0.,4.8,0.,4.8,0.,4.8,0.,4.8
1979-07-20 00:16:18.110 ,4,0,0.,4.8,0.,4.8,1.,4.8,0.,4.8
1979-07-20 00:16:22.910 ,4,0,0.,4.8,0.,4.8,0.,4.8,0.,4.8
1979-07-20 00:16:27.710 ,4,0,0.,4.8,0.,4.8,1.,4.8,0.,4.8
1979-07-20 00:16:32.510 ,4,0,0.,4.8,0.,4.8,0.,4.8,0.,4.8
1979-07-20 00:16:37.310 ,4,0,0.,4.8,0.,4.8,0.,4.8,0.,4.8
1979-07-20 00:16:42.110 ,4,0,0.,4.8,0.,4.8,0.,4.8,0.,4.8
1979-07-20 00:16:46.910 ,5,0,1.,4.8,0.,4.8,0.,4.8,0.,4.8
1979-07-20 00:16:51.710 ,5,0,1.,4.8,0.,4.8,0.,4.8,0.,4.8
1979-07-20 00:16:56.510 ,5,0,0.,4.8,0.,4.8,0.,4.8,0.,4.8
1979-07-20 00:17:01.310 ,5,0,1.,4.8,0.,4.8,0.,4.8,0.,4.8
1979-07-20 00:17:06.110 ,5,0,1.,4.8,0.,4.8,0.,4.8,0.,4.8
1979-07-20 00:17:10.910 ,5,0,0.,4.8,0.,4.8,0.,4.8,0.,4.8
1979-07-20 00:17:15.710 ,5,0,0.,4.8,0.,4.8,0.,4.8,0.,4.8
1979-07-20 00:17:20.510 ,5,0,1.,4.8,0.,4.8,0.,4.8,0.,4.8
1979-07-20 00:17:25.310 ,5,0,0.,4.8,0.,4.8,0.,4.8,0.,4.8
1979-07-20 00:17:30.110 ,5,0,0.,4.8,0.,4.8,0.,4.8,0.,4.8
1979-07-20 00:17:34.910 ,6,0,0.,4.8,0.,4.8,0.,4.8,0.,4.8
1979-07-20 00:17:39.710 ,6,0,1.,4.8,0.,4.8,1.,4.8,0.,4.8
1979-07-20 00:17:44.510 ,6,0,1.,4.8,0.,4.8,0.,4.8,0.,4.8
1979-07-20 00:17:49.310 ,6,0,0.,4.8,0.,4.8,0.,4.8,0.,4.8
1979-07-20 00:17:54.110 ,6,0,1.,4.8,0.,4.8,0.,4.8,0.,4.8
1979-07-20 00:17:58.910 ,6,0,0.,4.8,0.,4.8,0.,4.8,0.,4.8
1979-07-20 00:18:03.710 ,6,0,0.,4.8,0.,4.8,0.,4.8,0.,4.8
1979-07-20 00:18:08.510 ,6,0,0.,4.8,0.,4.8,0.,4.8,0.,4.8
1979-07-20 00:18:13.310 ,6,0,0.,4.8,0.,4.8,0.,4.8,0.,4.8
1979-07-20 00:18:18.110 ,6,0,0.,4.8,0.,4.8,1.,4.8,0.,4.8
1979-07-20 00:18:22.910 ,7,0,0.,4.8,0.,4.8,0.,4.8,0.,4.8
1979-07-20 00:18:27.710 ,7,0,1.,4.8,0.,4.8,0.,4.8,0.,4.8
1979-07-20 00:18:32.510 ,7,0,0.,4.8,0.,4.8,0.,4.8,0.,4.8
1979-07-20 00:18:37.310 ,7,0,0.,4.8,0.,4.8,0.,4.8,0.,4.8
1979-07-20 00:18:42.110 ,7,0,1.,4.8,0.,4.8,0.,4.8,0.,4.8
1979-07-20 00:18:46.910 ,7,0,0.,4.8,0.,4.8,0.,4.8,0.,4.8
1979-07-20 00:18:51.710 ,7,0,1.,4.8,0.,4.8,0.,4.8,0.,4.8
1979-07-20 00:18:56.510 ,7,0,0.,4.8,0.,4.8,0.,4.8,0.,4.8
1979-07-20 00:19:01.310 ,7,0,0.,4.8,0.,4.8,0.,4.8,0.,4.8
1979-07-20 00:19:06.110 ,7,0,0.,4.8,0.,4.8,0.,4.8,0.,4.8
1979-07-20 00:19:10.910 ,3,1,0.,4.8,1.,4.8,0.,4.8,0.,4.8
1979-07-20 00:19:15.710 ,3,1,0.,4.8,0.,4.8,0.,4.8,0.,4.8
1979-07-20 00:19:20.510 ,3,1,0.,4.8,0.,4.8,0.,4.8,0.,4.8
1979-07-20 00:19:25.310 ,3,1,0.,4.8,0.,4.8,0.,4.8,0.,4.8
1979-07-20 00:19:30.110 ,3,1,1.,4.8,0.,4.8,0.,4.8,0.,4.8
1979-07-20 00:19:34.910 ,0,1,0.,4.8,0.,4.8,0.,4.8,0.,4.8
1979-07-20 00:19:39.710 ,0,1,0.,4.8,0.,4.8,0.,4.8,0.,4.8
1979-07-20 00:19:44.510 ,0,1,1.,4.8,0.,4.8,0.,4.8,0.,4.8
1979-07-20 00:19:49.310 ,0,1,0.,4.8,0.,4.8,0.,4.8,0.,4.8
1979-07-20 00:19:54.110 ,0,1,0.,4.8,0.,4.8,0.,4.8,0.,4.8
1979-07-20 00:19:58.910 ,4,1,0.,4.8,0.,4.8,0.,4.8,0.,4.8
1979-07-20 00:20:03.710 ,4,1,2.,4.8,0.,4.8,0.,4.8,0.,4.8
1979-07-20 00:20:08.510 ,4,1,0.,4.8,0.,4.8,0.,4.8,0.,4.8
1979-07-20 00:20:13.310 ,4,1,0.,4.8,0.,4.8,0.,4.8,1.,4.8
1979-07-20 00:20:18.110 ,4,1,0.,4.8,0.,4.8,0.,4.8,0.,4.8
1979-07-20 00:20:22.910 ,7,1,1.,4.8,0.,4.8,0.,4.8,0.,4.8
1979-07-20 00:20:27.710 ,7,1,0.,4.8,0.,4.8,0.,4.8,0.,4.8
1979-07-20 00:20:32.510 ,7,1,0.,4.8,0.,4.8,0.,4.8,0.,4.8
1979-07-20 00:20:37.310 ,7,1,0.,4.8,0.,4.8,1.,4.8,0.,4.8
1979-07-20 00:20:42.110 ,7,1,0.,4.8,0.,4.8,0.,4.8,0.,4.8
1979-07-20 00:20:46.910 ,3,1,1.,4.8,0.,4.8,0.,4.8,0.,4.8
1979-07-20 00:20:51.710 ,3,1,1.,4.8,0.,4.8,0.,4.8,0.,4.8
1979-07-20 00:20:56.510 ,3,1,0.,4.8,0.,4.8,0.,4.8,0.,4.8
1979-07-20 00:21:01.310 ,3,1,0.,4.8,0.,4.8,0.,4.8,0.,4.8
1979-07-20 00:21:06.110 ,3,1,1.,4.8,0.,4.8,0.,4.8,0.,4.8
1979-07-20 00:21:10.910 ,0,1,1.,4.8,0.,4.8,0.,4.8,1.,4.8
1979-07-20 00:21:15.710 ,0,1,2.,4.8,0.,4.8,0.,4.8,0.,4.8
1979-07-20 00:21:20.510 ,0,1,0.,4.8,0.,4.8,0.,4.8,0.,4.8
1979-07-20 00:21:25.310 ,0,1,1.,4.8,0.,4.8,0.,4.8,0.,4.8
1979-07-20 00:21:30.110 ,0,1,0.,4.8,0.,4.8,0.,4.8,0.,4.8
1979-07-20 00:21:34.910 ,4,1,0.,4.8,0.,4.8,0.,4.8,0.,4.8
1979-07-20 00:21:39.710 ,4,1,0.,4.8,0.,4.8,0.,4.8,0.,4.8
1979-07-20 00:21:44.510 ,4,1,0.,4.8,0.,4.8,0.,4.8,0.,4.8
1979-07-20 00:21:49.310 ,4,1,1.,4.8,0.,4.8,0.,4.8,0.,4.8
1979-07-20 00:21:54.110 ,4,1,0.,4.8,0.,4.8,0.,4.8,0.,4.8
1979-07-20 00:21:58.910 ,7,1,0.,4.8,0.,4.8,0.,4.8,0.,4.8
1979-07-20 00:22:03.710 ,7,1,0.,4.8,0.,4.8,0.,4.8,0.,4.8
1979-07-20 00:22:08.510 ,7,1,0.,4.8,0.,4.8,0.,4.8,0.,4.8
1979-07-20 00:22:13.310 ,7,1,0.,4.8,0.,4.8,0.,4.8,0.,4.8
1979-07-20 00:22:18.110 ,7,1,0.,4.8,0.,4.8,0.,4.8,0.,4.8
1979-07-20 00:22:22.910 ,3,1,0.,4.8,0.,4.8,0.,4.8,0.,4.8
1979-07-20 00:22:27.710 ,3,1,0.,4.8,0.,4.8,0.,4.8,0.,4.8
1979-07-20 00:22:32.510 ,3,1,0.,4.8,0.,4.8,0.,4.8,0.,4.8
1979-07-20 00:22:37.310 ,3,1,0.,4.8,0.,4.8,0.,4.8,0.,4.8
1979-07-20 00:22:42.110 ,3,1,1.,4.8,0.,4.8,0.,4.8,1.,4.8
1979-07-20 00:22:46.910 ,0,1,0.,4.8,1.,4.8,0.,4.8,0.,4.8
1979-07-20 00:22:51.710 ,0,1,0.,4.8,0.,4.8,0.,4.8,0.,4.8
1979-07-20 00:22:56.510 ,0,1,1.,4.8,1.,4.8,0.,4.8,0.,4.8
1979-07-20 00:23:01.310 ,0,1,0.,4.8,0.,4.8,0.,4.8,0.,4.8
1979-07-20 00:23:06.110 ,0,1,0.,4.8,0.,4.8,0.,4.8,0.,4.8
1979-07-20 00:23:10.910 ,4,1,1.,4.8,0.,4.8,0.,4.8,0.,4.8
1979-07-20 00:23:15.710 ,4,1,0.,4.8,1.,4.8,0.,4.8,0.,4.8
1979-07-20 00:23:20.510 ,4,1,0.,4.8,0.,4.8,0.,4.8,0.,4.8
1979-07-20 00:23:25.310 ,4,1,0.,4.8,0.,4.8,0.,4.8,0.,4.8
1979-07-20 00:23:30.110 ,4,1,1.,4.8,0.,4.8,0.,4.8,0.,4.8
1979-07-20 00:23:34.910 ,7,1,0.,4.8,0.,4.8,0.,4.8,0.,4.8
1979-07-20 00:23:39.710 ,7,1,0.,4.8,0.,4.8,0.,4.8,0.,4.8
1979-07-20 00:23:44.510 ,7,1,0.,4.8,0.,4.8,0.,4.8,0.,4.8
1979-07-20 00:23:49.310 ,7,1,1.,4.8,0.,4.8,0.,4.8,0.,4.8
1979-07-20 00:23:54.110 ,7,1,1.,4.8,0.,4.8,0.,4.8,0.,4.8
1979-07-20 00:23:58.910 ,3,1,0.,4.8,0.,4.8,0.,4.8,0.,4.8
1979-07-20 00:24:03.710 ,3,1,0.,4.8,0.,4.8,0.,4.8,0.,4.8
1979-07-20 00:24:08.510 ,3,1,0.,4.8,0.,4.8,0.,4.8,0.,4.8
1979-07-20 00:24:13.310 ,3,1,2.,4.8,0.,4.8,0.,4.8,0.,4.8
1979-07-20 00:24:18.110 ,3,1,0.,4.8,0.,4.8,0.,4.8,0.,4.8
1979-07-20 00:24:22.910 ,0,1,0.,4.8,0.,4.8,0.,4.8,0.,4.8
1979-07-20 00:24:27.710 ,0,1,0.,4.8,0.,4.8,0.,4.8,0.,4.8
1979-07-20 00:24:32.510 ,0,1,0.,4.8,0.,4.8,1.,4.8,0.,4.8
1979-07-20 00:24:37.310 ,0,1,0.,4.8,0.,4.8,0.,4.8,0.,4.8
1979-07-20 00:24:42.110 ,0,1,1.,4.8,0.,4.8,0.,4.8,0.,4.8
1979-07-20 00:24:46.910 ,4,1,1.,4.8,0.,4.8,0.,4.8,0.,4.8
1979-07-20 00:24:51.710 ,4,1,0.,4.8,0.,4.8,1.,4.8,0.,4.8
1979-07-20 00:24:56.510 ,4,1,0.,4.8,0.,4.8,0.,4.8,0.,4.8
1979-07-20 00:25:01.310 ,4,1,0.,4.8,0.,4.8,0.,4.8,0.,4.8
1979-07-20 00:25:06.110 ,4,1,0.,4.8,0.,4.8,0.,4.8,1.,4.8
1979-07-20 00:25:10.910 ,7,1,0.,4.8,0.,4.8,0.,4.8,0.,4.8
1979-07-20 00:25:15.710 ,7,1,0.,4.8,0.,4.8,0.,4.8,0.,4.8
1979-07-20 00:25:20.510 ,7,1,0.,4.8,0.,4.8,0.,4.8,0.,4.8
1979-07-20 00:25:25.310 ,7,1,0.,4.8,0.,4.8,0.,4.8,0.,4.8
1979-07-20 00:25:30.110 ,7,1,0.,4.8,0.,4.8,1.,4.8,0.,4.8
1979-07-20 00:25:34.910 ,3,1,0.,4.8,0.,4.8,0.,4.8,0.,4.8
1979-07-20 00:25:39.710 ,3,1,1.,4.8,0.,4.8,1.,4.8,0.,4.8
1979-07-20 00:25:44.510 ,3,1,0.,4.8,0.,4.8,0.,4.8,0.,4.8
1979-07-20 00:25:49.310 ,3,1,1.,4.8,0.,4.8,0.,4.8,0.,4.8
1979-07-20 00:25:54.110 ,3,1,0.,4.8,0.,4.8,0.,4.8,0.,4.8
1979-07-20 00:25:58.910 ,0,1,0.,4.8,0.,4.8,0.,4.8,0.,4.8
1979-07-20 00:26:03.710 ,0,1,0.,4.8,0.,4.8,0.,4.8,0.,4.8
1979-07-20 00:26:08.510 ,0,1,1.,4.8,0.,4.8,0.,4.8,0.,4.8
1979-07-20 00:26:13.310 ,0,1,0.,4.8,0.,4.8,0.,4.8,0.,4.8
1979-07-20 00:26:18.110 ,0,1,1.,4.8,0.,4.8,0.,4.8,0.,4.8
1979-07-20 00:26:22.910 ,4,1,0.,4.8,0.,4.8,1.,4.8,0.,4.8
1979-07-20 00:26:27.710 ,4,1,0.,4.8,0.,4.8,0.,4.8,0.,4.8
1979-07-20 00:26:32.510 ,4,1,0.,4.8,0.,4.8,1.,4.8,0.,4.8
1979-07-20 00:26:37.310 ,4,1,0.,4.8,0.,4.8,0.,4.8,0.,4.8
1979-07-20 00:26:42.110 ,4,1,0.,4.8,0.,4.8,0.,4.8,0.,4.8
1979-07-20 00:26:46.910 ,7,1,0.,4.8,0.,4.8,0.,4.8,0.,4.8
1979-07-20 00:26:51.710 ,7,1,0.,4.8,0.,4.8,0.,4.8,0.,4.8
1979-07-20 00:26:56.510 ,7,1,0.,4.8,0.,4.8,1.,4.8,0.,4.8
1979-07-20 00:27:01.310 ,7,1,0.,4.8,0.,4.8,0.,4.8,0.,4.8
1979-07-20 00:27:06.110 ,7,1,2.,4.8,0.,4.8,1.,4.8,0.,4.8
1979-07-20 00:27:10.910 ,3,1,0.,4.8,0.,4.8,1.,4.8,0.,4.8
1979-07-20 00:27:15.710 ,3,1,1.,4.8,0.,4.8,0.,4.8,0.,4.8
1979-07-20 00:27:20.510 ,3,1,1.,4.8,0.,4.8,0.,4.8,0.,4.8
1979-07-20 00:27:25.310 ,3,1,0.,4.8,0.,4.8,0.,4.8,0.,4.8
1979-07-20 00:27:30.110 ,3,1,0.,4.8,0.,4.8,0.,4.8,0.,4.8
1979-07-20 00:27:34.910 ,0,1,0.,4.8,0.,4.8,0.,4.8,0.,4.8
1979-07-20 00:27:39.710 ,0,1,0.,4.8,0.,4.8,0.,4.8,0.,4.8
1979-07-20 00:27:44.510 ,0,1,0.,4.8,0.,4.8,0.,4.8,0.,4.8
1979-07-20 00:27:49.310 ,0,1,1.,4.8,0.,4.8,0.,4.8,0.,4.8
1979-07-20 00:27:54.110 ,0,1,0.,4.8,0.,4.8,0.,4.8,0.,4.8
1979-07-20 00:27:58.910 ,4,1,0.,4.8,0.,4.8,0.,4.8,0.,4.8
1979-07-20 00:28:03.710 ,4,1,1.,4.8,0.,4.8,0.,4.8,0.,4.8
1979-07-20 00:28:08.510 ,4,1,0.,4.8,0.,4.8,0.,4.8,0.,4.8
1979-07-20 00:28:13.310 ,4,1,0.,4.8,0.,4.8,0.,4.8,0.,4.8
1979-07-20 00:28:18.110 ,4,1,1.,4.8,0.,4.8,0.,4.8,0.,4.8
1979-07-20 00:28:22.910 ,7,1,0.,4.8,0.,4.8,0.,4.8,0.,4.8
1979-07-20 00:28:27.710 ,7,1,0.,4.8,0.,4.8,0.,4.8,0.,4.8
1979-07-20 00:28:32.510 ,7,1,1.,4.8,0.,4.8,0.,4.8,0.,4.8
1979-07-20 00:28:37.310 ,7,1,1.,4.8,0.,4.8,1.,4.8,0.,4.8
1979-07-20 00:28:42.110 ,7,1,0.,4.8,0.,4.8,1.,4.8,0.,4.8
1979-07-20 00:28:46.910 ,3,1,0.,4.8,0.,4.8,0.,4.8,0.,4.8
1979-07-20 00:28:51.710 ,3,1,0.,4.8,0.,4.8,0.,4.8,0.,4.8
1979-07-20 00:28:56.510 ,3,1,0.,4.8,0.,4.8,0.,4.8,0.,4.8
1979-07-20 00:29:01.310 ,3,1,1.,4.8,0.,4.8,0.,4.8,0.,4.8
1979-07-20 00:29:06.110 ,3,1,1.,4.8,0.,4.8,0.,4.8,1.,4.8
1979-07-20 00:29:10.910 ,0,1,2.,4.8,0.,4.8,0.,4.8,0.,4.8
1979-07-20 00:29:15.710 ,0,1,0.,4.8,0.,4.8,0.,4.8,0.,4.8
1979-07-20 00:29:20.510 ,0,1,0.,4.8,0.,4.8,2.,4.8,0.,4.8
1979-07-20 00:29:25.310 ,0,1,0.,4.8,0.,4.8,0.,4.8,0.,4.8
1979-07-20 00:29:30.110 ,0,1,0.,4.8,0.,4.8,0.,4.8,0.,4.8
1979-07-20 00:29:34.910 ,0,0,0.,4.8,0.,4.8,0.,4.8,0.,4.8
1979-07-20 00:29:39.710 ,0,0,1.,4.8,0.,4.8,0.,4.8,0.,4.8
1979-07-20 00:29:44.510 ,0,0,0.,4.8,0.,4.8,0.,4.8,0.,4.8
1979-07-20 00:29:49.310 ,0,0,0.,4.8,0.,4.8,2.,4.8,0.,4.8
1979-07-20 00:29:54.110 ,0,0,1.,4.8,0.,4.8,0.,4.8,0.,4.8
1979-07-20 00:29:58.910 ,0,0,1.,4.8,0.,4.8,0.,4.8,0.,4.8
1979-07-20 00:30:03.710 ,0,0,0.,4.8,0.,4.8,0.,4.8,0.,4.8
1979-07-20 00:30:08.510 ,0,0,0.,4.8,0.,4.8,0.,4.8,0.,4.8
1979-07-20 00:30:13.310 ,0,0,0.,4.8,0.,4.8,0.,4.8,0.,4.8
1979-07-20 00:30:18.110 ,0,0,0.,4.8,0.,4.8,0.,4.8,0.,4.8
1979-07-20 00:30:22.910 ,5,0,0.,4.8,1.,4.8,0.,4.8,0.,4.8
1979-07-20 00:30:27.710 ,5,0,0.,4.8,0.,4.8,0.,4.8,0.,4.8
1979-07-20 00:30:32.510 ,5,0,1.,4.8,1.,4.8,0.,4.8,0.,4.8
1979-07-20 00:30:37.310 ,5,0,0.,4.8,0.,4.8,0.,4.8,0.,4.8
1979-07-20 00:30:42.110 ,5,0,0.,4.8,0.,4.8,0.,4.8,0.,4.8
1979-07-20 00:30:46.910 ,5,0,1.,4.8,0.,4.8,0.,4.8,0.,4.8
1979-07-20 00:30:51.710 ,5,0,1.,4.8,0.,4.8,0.,4.8,0.,4.8
1979-07-20 00:30:56.510 ,5,0,0.,4.8,0.,4.8,0.,4.8,0.,4.8
1979-07-20 00:31:01.310 ,5,0,0.,4.8,0.,4.8,0.,4.8,0.,4.8
1979-07-20 00:31:06.110 ,5,0,1.,4.8,0.,4.8,0.,4.8,0.,4.8
1979-07-20 00:31:10.910 ,4,0,0.,4.8,0.,4.8,1.,4.8,0.,4.8
1979-07-20 00:31:15.710 ,4,0,0.,4.8,0.,4.8,0.,4.8,1.,4.8
1979-07-20 00:31:20.510 ,4,0,0.,4.8,0.,4.8,0.,4.8,0.,4.8
1979-07-20 00:31:25.310 ,4,0,1.,4.8,0.,4.8,0.,4.8,0.,4.8
1979-07-20 00:31:30.110 ,4,0,0.,4.8,0.,4.8,0.,4.8,0.,4.8
1979-07-20 00:31:34.910 ,4,0,0.,4.8,0.,4.8,0.,4.8,0.,4.8
1979-07-20 00:31:39.710 ,4,0,0.,4.8,0.,4.8,0.,4.8,0.,4.8
1979-07-20 00:31:44.510 ,4,0,1.,4.8,0.,4.8,0.,4.8,0.,4.8
1979-07-20 00:31:49.310 ,4,0,0.,4.8,0.,4.8,0.,4.8,0.,4.8
1979-07-20 00:31:54.110 ,4,0,0.,4.8,0.,4.8,0.,4.8,0.,4.8
1979-07-20 00:31:58.910 ,3,0,0.,4.8,0.,4.8,0.,4.8,0.,4.8
1979-07-20 00:32:03.710 ,3,0,0.,4.8,0.,4.8,0.,4.8,0.,4.8
1979-07-20 00:32:08.510 ,3,0,0.,4.8,0.,4.8,0.,4.8,0.,4.8
1979-07-20 00:32:13.310 ,3,0,0.,4.8,0.,4.8,0.,4.8,0.,4.8
1979-07-20 00:32:18.110 ,3,0,0.,4.8,0.,4.8,0.,4.8,0.,4.8
1979-07-20 00:32:22.910 ,3,0,0.,4.8,0.,4.8,0.,4.8,0.,4.8
1979-07-20 00:32:27.710 ,3,0,3.,4.8,0.,4.8,0.,4.8,0.,4.8
1979-07-20 00:32:32.510 ,3,0,0.,4.8,0.,4.8,0.,4.8,0.,4.8
1979-07-20 00:32:37.310 ,3,0,0.,4.8,0.,4.8,0.,4.8,0.,4.8
1979-07-20 00:32:42.110 ,3,0,0.,4.8,0.,4.8,0.,4.8,0.,4.8
1979-07-20 00:32:46.910 ,2,0,0.,4.8,0.,4.8,0.,4.8,0.,4.8
1979-07-20 00:32:51.710 ,2,0,1.,4.8,0.,4.8,0.,4.8,0.,4.8
1979-07-20 00:32:56.510 ,2,0,0.,4.8,0.,4.8,0.,4.8,0.,4.8
1979-07-20 00:33:01.310 ,2,0,0.,4.8,0.,4.8,0.,4.8,0.,4.8
1979-07-20 00:33:06.110 ,2,0,0.,4.8,0.,4.8,0.,4.8,0.,4.8
1979-07-20 00:33:10.910 ,2,0,0.,4.8,0.,4.8,0.,4.8,0.,4.8
1979-07-20 00:33:15.710 ,2,0,1.,4.8,0.,4.8,1.,4.8,0.,4.8